Regional Weather Roundup
Issued by NWS Jackson, KY

Home | Current Version | Previous Version | Graphics & Text | Print | Product List | Glossary On
Versions: 1 2 3 4 5 6 7 8 9 10 11 12 13 14 15 16 17 18 19 20 21 22 23 24 25 26 27
000
ASUS43 KJKL 270210
RWRJKL

EAST KENTUCKY HOURLY WEATHER ROUNDUP
NATIONAL WEATHER SERVICE JACKSON KY
900 PM EST SUN FEB 26 2017

NOTE: "FAIR" INDICATES FEW OR NO CLOUDS BELOW 12,000 FEET WITH
NO SIGNIFICANT WEATHER AND/OR OBSTRUCTIONS TO VISIBILITY.

* THESE REPORTS ARE NOT UNDER NWS QUALITY CONTROL AND MAY NOT
  REPORT WEATHER SUCH AS PRECIPITATION AND FOG.

KYZ079-080-083-085-087-088-110-112-115-119-120-270300
...EASTERN KENTUCKY...

CITY           SKY/WX    TMP DP  RH WIND       PRES   REMARKS
JACKSON        MOCLDY    44  13  28 CALM      30.21R
LONDON         CLEAR     39  21  48 CALM      30.21R
SOMERSET*      PTCLDY    36  23  60 CALM      30.21S
MONTICELLO*    CLEAR     34  26  72 N9        30.20S WCI  27
WILLIAMSBURG*  CLEAR     43  18  36 SE5       30.20R
MIDDLESBORO*   CLEAR     35  26  69 CALM      30.23R
HARLAN APT*    CLEAR     37  21  52 CALM      30.21R
PIKE CO APT*     N/A     42  14  32 CALM      30.20S
BIG SANDY APT* CLEAR     39  18  43 SE3       30.21S
MOREHEAD APT*  CLOUDY    43  16  33 S5        30.22R
ASHLAND*       CLEAR     27  25  93 CALM      30.20S
$$

KYZ035-036-041-042-044-050-067-078-099-270300
...CENTRAL KENTUCKY...

CITY           SKY/WX    TMP DP  RH WIND       PRES   REMARKS
FLEMING/MASON* CLOUDY    40  21  47 S5        30.21R
DANVILLE*      CLOUDY    41  27  56 SE3       30.18F
LEXINGTON      CLOUDY    43  16  33 SE5       30.18F
FRANKFORT      PTCLDY    41  18  39 SE3       30.17F
LOUISVILLE     CLOUDY    45  16  31 SE6       30.16F
LEBANON*       MOCLDY    45  18  33 E3        30.17F
GLASGOW*       CLEAR     39  25  56 CALM      30.17S
BOWLING GREEN  PTCLDY    43  22  43 CALM      30.17S
$$

KYZ091>093-OHZ055-061-077-WVZ005-015-034-035-042-270300
...SOUTHERN OHIO/WEST VIRGINIA...

CITY           SKY/WX    TMP DP  RH WIND       PRES   REMARKS
COVINGTON      CLOUDY    40  21  46 S7        30.16S
COLUMBUS       MOCLDY    40  19  43 S6        30.17S
DAYTON         MOCLDY    40  16  37 S8        30.15R WCI  34
WILMINGTON     CLEAR     38  23  55 S8        30.16R WCI  32
HUNTINGTON     CLEAR     40  13  33 SE3       30.20F
CHARLESTON     PTCLDY    37  15  40 CALM      30.22S
PINEVILLE*       N/A     31  21  67 MISG      30.27R
BECKLEY        CLEAR     32  13  45 SE6       30.20S WCI  26
BLUEFIELD      CLEAR     36  10  34 S3        30.21R
LOGAN CO APT*    N/A     39  14  35 CALM      30.20S
$$

VAZ002-007-008-TNZ017-027-036-066-071-270300
...SOUTHWEST VIRGINIA/EAST TENNESSEE...

CITY           SKY/WX    TMP DP  RH WIND       PRES   REMARKS
WISE*          CLEAR     36  14  41 CALM      30.21S
JONESVILLE*      N/A     36  25  64 CALM      30.24R
ABINGDON*      CLEAR     36  21  55 CALM      30.23R
BRISTOL        CLEAR     34  23  64 CALM      30.23S
MORRISTOWN*    CLEAR     39  23  52 CALM      30.21S
SEVIERVILLE*   CLEAR     37  18  44 CALM      30.22S
KNOXVILLE      MOCLDY    45  20  36 SE5       30.20S
LAFOLLETTE*    PTCLDY    36  25  64 CALM      30.24R
OAK RIDGE      CLOUDY    42  24  49 CALM      30.23S
CROSSVILLE     PTCLDY    44  19  36 VRB6      30.17S
NASHVILLE      MOCLDY    50  26  39 NE3       30.14S
$$

...KEY TO REMARKS...
VSB - VISIBILITY IN MILES
WCI - WIND CHILL INDEX
HX  - HEAT INDEX

$$




USA.gov is the U.S. government's official web portal to all federal, state and local government web resources and services.